GFSNIL_sfc_thetae_000.txt.gz
Theta_e
369 363 361 362 355 351 347 346 352 357 352 350 348 347 345 340 340 342 340 342 343 337
369 366 362 364 363 355 356 347 353 353 350 347 348 345 344 339 340 340 341 340 341 340
365 367 365 365 363 359 357 355 351 350 346 346 345 344 345 341 342 341 335 334 339 340
362 363 365 364 364 363 358 354 350 350 344 344 343 344 344 343 340 339 339 339 340 341
362 362 362 363 362 358 354 351 349 346 344 344 343 343 343 340 338 338 337 338 340 341
360 360 361 358 352 353 349 346 342 342 344 345 345 343 344 343 341 339 338 339 340 340
359 359 359 356 343 342 343 343 340 343 341 342 344 344 343 342 342 339 337 340 341 341
362 359 355 350 343 341 341 343 336 337 336 339 343 339 343 341 339 339 339 341 342 343
362 356 348 348 346 347 345 342 338 337 337 338 338 331 330 337 339 340 341 341 343 344
358 352 347 347 346 345 343 343 341 340 340 338 341 327 327 331 338 339 342 343 343 339
355 349 349 347 346 345 342 339 341 341 340 339 340 327 325 330 340 343 344 342 338 337
352 347 345 345 344 345 343 341 342 343 342 341 342 320 321 329 339 340 340 337 336 334
350 348 345 346 346 345 345 342 339 340 342 335 343 320 317 325 336 337 334 334 332 323
351 351 350 349 346 345 343 341 343 341 343 340 335 339 316 316 336 332 330 331 337 334

GFSNIL_sfc_thetae_003.txt.gz
Theta_e
375 361 359 363 357 352 349 349 358 357 357 354 349 348 349 342 341 347 341 342 347 338
374 372 361 369 368 357 363 350 350 355 356 354 349 349 350 340 346 342 343 344 347 341
370 373 371 372 369 366 363 358 358 354 353 352 352 352 351 346 347 345 339 336 346 346
367 369 370 368 368 367 364 362 358 357 354 350 349 347 348 347 344 346 346 345 342 344
371 369 367 368 369 368 365 362 358 356 352 348 347 346 346 342 341 341 339 339 344 342
366 368 367 368 368 367 366 360 354 354 351 347 346 347 347 346 343 341 340 339 343 342
367 367 366 368 367 363 362 357 352 351 348 347 346 345 344 343 342 343 342 342 343 343
370 368 367 367 366 362 358 354 350 348 346 345 342 342 345 343 343 345 342 341 341 344
371 368 366 365 362 356 356 352 349 343 342 341 338 331 333 341 340 343 343 341 342 343
372 366 360 360 357 354 352 352 348 342 343 341 343 328 328 332 339 339 342 344 342 342
369 361 355 353 352 352 353 351 348 344 346 344 343 326 326 331 338 338 341 342 342 343
365 358 353 349 350 353 351 353 346 343 344 344 344 322 322 330 339 338 342 343 343 343
363 357 351 350 350 352 354 350 343 342 343 338 346 319 318 327 336 333 335 347 344 327
358 354 351 352 353 351 350 346 341 340 345 348 343 339 316 316 337 333 336 335 337 333

GFSNIL_sfc_thetae_006.txt.gz
Theta_e
365 362 362 364 359 358 354 356 356 358 360 359 352 352 351 348 346 348 345 343 345 342
366 364 361 364 364 361 360 359 358 357 359 356 353 352 352 344 345 347 348 346 345 342
368 366 365 363 364 359 360 360 355 357 354 355 351 352 351 346 348 345 344 343 343 342
367 367 366 367 366 361 363 357 357 354 354 353 351 351 348 346 344 344 344 344 343 342
367 368 366 364 366 363 364 360 356 356 354 353 347 349 346 343 340 344 342 343 343 341
365 365 365 365 363 364 363 360 358 355 353 349 346 347 345 344 343 343 342 341 341 341
363 364 363 365 364 363 363 360 359 355 353 349 346 345 344 344 344 343 342 345 344 344
365 364 364 364 364 364 364 363 362 355 352 348 344 343 344 344 343 343 343 340 344 343
364 365 364 363 364 364 365 362 359 351 348 344 341 335 336 343 342 343 342 338 343 345
363 365 364 364 364 364 362 359 354 349 344 340 343 328 330 336 342 340 342 339 342 339
365 364 364 363 363 363 358 354 353 348 342 340 342 327 327 332 336 339 342 340 341 335
369 366 364 362 360 358 353 352 350 347 342 342 343 323 323 327 334 336 336 340 340 339
369 365 359 357 354 351 353 352 352 345 345 337 345 321 319 326 335 335 337 340 340 328
368 363 357 352 351 351 352 354 348 341 341 342 343 338 316 317 337 336 335 334 336 338

GFSNIL_sfc_thetae_009.txt.gz
Theta_e
355 351 349 351 351 351 350 351 350 351 349 344 341 342 341 337 336 336 333 332 330 330
356 355 353 351 354 350 348 350 350 351 349 346 341 341 339 336 333 336 334 330 331 330
357 354 353 351 352 352 347 350 348 351 352 348 342 340 338 334 337 334 334 333 332 331
359 357 355 355 354 352 351 349 349 349 350 347 343 342 339 334 334 336 330 332 330 332
360 359 357 354 355 354 351 350 350 350 347 347 344 342 341 336 336 333 333 332 330 329
359 360 359 356 358 358 352 352 348 346 346 345 344 342 341 337 334 335 334 334 334 333
358 359 360 359 356 357 357 352 348 347 347 346 344 341 340 338 334 335 335 334 336 334
359 359 360 359 359 355 355 354 352 347 347 345 342 341 338 338 335 335 334 334 337 336
357 358 358 358 358 357 355 354 353 349 347 343 342 335 335 338 337 335 334 335 337 334
355 356 356 357 356 356 355 356 354 349 346 342 339 330 332 336 336 335 335 337 336 335
355 355 357 356 355 357 357 355 351 347 343 340 338 326 327 331 336 335 335 337 336 333
353 355 357 356 355 357 356 351 349 345 339 337 337 324 321 326 331 333 333 334 334 331
353 355 357 356 355 352 350 347 347 343 338 333 337 322 321 324 331 329 329 330 333 328
359 358 356 351 348 346 345 347 346 343 338 337 337 329 317 317 330 328 329 327 328 329

GFSNIL_sfc_thetae_012.txt.gz
Theta_e
350 350 348 343 348 349 350 351 350 351 347 340 338 336 334 332 332 332 330 331 328 327
352 351 349 347 349 350 349 350 349 350 345 341 339 338 336 332 331 334 330 328 327 328
351 353 350 348 349 349 348 349 349 348 346 342 338 339 337 333 331 332 332 330 327 328
353 351 352 350 350 351 348 346 348 347 346 343 339 338 335 333 333 330 330 332 330 329
354 354 352 350 351 350 349 347 347 347 348 346 342 337 337 332 333 332 329 328 328 327
354 354 352 351 351 351 350 346 347 346 347 346 343 339 338 335 333 331 332 331 328 328
355 355 355 354 352 351 352 347 346 346 346 347 345 341 340 337 334 333 332 332 332 331
356 357 357 355 354 352 354 349 347 344 345 344 344 343 339 338 335 333 332 332 332 332
357 356 356 357 356 353 352 352 347 344 343 343 345 336 335 338 336 335 332 330 331 333
355 355 355 356 356 355 352 350 349 345 344 343 343 331 331 335 337 334 333 331 331 333
355 354 355 355 355 354 355 351 350 347 346 344 343 328 327 332 337 335 333 333 333 335
355 353 354 353 354 354 354 353 352 349 345 344 343 323 323 329 335 335 332 332 334 335
354 353 352 353 353 355 355 354 349 346 344 337 339 319 319 325 330 330 330 332 333 326
353 352 353 354 355 355 352 350 347 342 337 336 336 331 319 317 330 328 328 328 329 330

GFSNIL_sfc_thetae_015.txt.gz
Theta_e
348 347 346 343 344 345 347 348 350 349 348 344 336 335 332 330 329 330 329 325 325 327
349 348 346 344 345 346 348 349 349 350 348 344 338 335 332 330 330 331 328 328 328 326
349 349 348 346 345 346 347 348 347 349 347 343 338 335 333 330 329 331 329 327 325 325
349 350 349 346 347 347 347 347 347 348 347 343 338 337 335 332 330 329 329 330 327 325
348 349 350 348 347 349 347 347 347 347 346 343 340 337 335 334 334 329 327 329 328 327
348 348 349 350 350 349 349 345 346 346 345 343 341 337 336 334 334 333 330 328 327 327
349 350 349 350 349 350 349 346 345 345 346 346 343 340 337 336 334 333 332 332 329 327
350 352 352 350 349 349 349 348 346 344 345 346 345 342 339 338 335 334 332 332 331 330
351 352 352 352 350 349 348 348 345 344 343 342 345 336 335 339 337 335 333 331 331 331
351 352 352 353 352 349 348 349 345 343 343 342 343 332 331 335 338 335 334 334 333 331
352 351 352 353 352 351 350 350 345 344 342 343 343 326 327 333 338 336 336 335 333 329
352 352 352 352 353 354 352 349 348 346 344 344 343 324 324 328 337 336 336 336 331 331
353 353 352 353 353 355 355 352 350 348 347 340 344 320 320 328 338 336 332 327 329 327
353 354 353 353 354 354 354 353 352 350 349 346 341 322 317 322 335 332 328 328 328 329

GFSNIL_sfc_thetae_018.txt.gz
Theta_e
347 346 346 346 346 346 347 349 352 351 351 349 345 343 340 337 334 335 336 334 333 333
347 347 346 347 347 347 348 350 351 351 350 349 345 342 339 336 335 335 335 334 332 332
348 349 349 348 346 346 348 351 350 351 351 349 345 341 339 336 336 335 333 333 333 332
348 349 349 348 347 347 348 349 350 350 350 348 345 341 338 337 336 335 335 334 332 332
349 350 349 348 349 349 347 349 350 350 350 348 345 342 340 337 337 334 333 334 333 332
348 349 348 348 349 349 349 348 349 349 349 348 345 342 341 340 338 336 335 334 334 334
346 348 349 349 349 348 350 348 348 348 349 348 346 344 342 340 339 338 337 335 334 333
347 348 348 350 350 350 349 349 348 348 348 349 347 345 342 341 339 338 337 335 335 334
347 348 348 348 349 350 349 350 348 347 347 347 347 337 334 340 340 339 337 335 335 337
348 348 349 350 349 348 348 349 347 347 347 347 348 331 331 335 343 341 339 338 336 335
348 348 350 350 349 349 349 348 347 347 347 346 346 329 328 333 344 341 339 338 338 337
349 349 350 350 350 351 349 348 348 348 346 345 346 326 323 330 343 339 337 339 338 337
350 350 349 351 351 352 352 350 351 348 347 340 346 321 320 330 341 337 336 338 338 327
351 351 351 352 353 353 353 352 350 348 348 348 345 334 318 321 340 339 337 333 332 334

GFSNIL_sfc_thetae_021.txt.gz
Theta_e
361 356 357 359 354 353 353 355 361 362 363 362 361 360 358 354 351 350 347 347 345 342
359 358 357 360 360 355 361 356 360 361 362 362 361 360 358 353 351 348 348 346 346 343
358 359 359 360 360 360 360 360 359 360 361 361 361 360 358 355 353 349 345 343 345 344
357 357 359 359 360 360 361 361 360 360 360 360 360 359 357 356 354 348 347 345 345 345
358 358 357 358 359 361 361 361 363 362 360 360 360 359 356 355 353 349 347 346 344 343
357 357 357 358 360 361 361 361 359 362 361 359 359 358 357 357 355 351 350 348 345 343
356 357 357 359 360 360 361 361 361 362 361 360 359 358 357 356 355 353 351 350 347 345
357 358 359 359 359 360 361 360 361 361 361 361 358 355 357 355 355 354 351 350 348 345
356 358 358 359 360 360 360 360 360 360 360 359 356 342 339 351 355 354 353 351 349 347
356 356 357 358 359 358 358 359 359 359 359 359 360 334 333 338 355 354 353 353 350 346
355 355 357 357 357 358 359 358 358 358 359 359 359 331 329 334 353 355 355 353 351 349
355 355 357 356 356 357 358 358 358 359 359 358 359 328 326 333 351 354 354 353 352 350
358 357 357 357 359 359 359 357 357 358 359 349 358 327 322 331 351 352 349 351 350 331
358 358 359 360 360 359 359 357 358 357 358 359 354 355 320 321 353 351 345 345 344 348

GFSNIL_sfc_thetae_024.txt.gz
Theta_e
369 360 360 364 359 358 356 357 363 364 365 366 366 367 367 362 360 360 356 353 349 340
368 368 361 368 367 361 367 359 362 363 365 365 365 367 367 361 362 360 358 354 351 344
365 369 369 370 368 369 366 367 363 364 364 364 365 366 367 362 363 361 356 352 351 350
364 365 366 366 369 371 368 370 367 367 364 363 364 365 366 366 362 361 359 355 351 351
367 367 364 367 368 371 370 370 369 367 365 363 362 366 365 363 360 360 358 356 353 351
363 364 366 368 368 370 370 371 365 368 369 367 364 365 365 365 363 361 360 358 355 353
364 365 366 369 369 370 371 371 370 371 371 368 366 364 363 363 363 363 361 361 358 355
366 368 368 368 369 370 371 370 371 370 371 370 365 360 366 366 362 364 363 362 360 358
366 368 368 369 369 370 370 370 370 369 369 369 362 344 341 357 364 365 365 363 362 360
366 367 368 369 370 368 369 370 369 369 369 369 369 336 335 341 362 365 364 366 363 358
364 365 366 368 367 368 368 367 367 368 369 369 368 335 330 337 361 365 365 363 362 361
363 363 364 366 366 368 367 367 367 368 369 368 368 332 327 335 358 358 365 364 363 363
365 365 364 366 367 369 368 366 362 365 368 357 368 334 324 335 354 356 355 364 367 335
366 366 367 369 369 367 366 364 366 365 367 369 364 364 320 323 358 355 354 353 355 358

GFSNIL_sfc_thetae_027.txt.gz
Theta_e
372 362 360 365 357 355 353 355 369 371 370 370 369 368 372 364 362 366 358 357 356 343
370 369 363 366 368 362 366 357 369 370 370 370 370 372 372 361 366 366 363 360 358 348
372 372 370 372 371 366 368 372 371 368 368 369 370 372 373 365 368 368 361 356 362 357
369 370 372 370 372 372 374 375 370 373 370 369 369 371 372 369 368 367 366 364 363 359
370 369 369 371 370 374 373 374 376 373 372 371 369 371 370 368 362 367 363 361 362 357
369 368 367 370 371 373 374 374 372 373 374 372 369 370 371 370 368 367 366 364 363 359
368 368 369 370 373 372 374 373 373 373 373 373 371 369 369 369 369 368 367 367 366 363
369 372 373 372 373 373 373 373 374 373 373 374 372 366 369 368 368 369 367 367 367 366
369 371 372 374 373 374 373 373 373 373 371 371 369 348 342 360 366 369 369 367 368 369
369 370 372 374 374 372 372 374 373 372 372 371 372 340 336 341 366 367 368 369 368 365
367 370 372 372 372 373 373 371 372 372 373 372 371 340 331 336 362 366 368 368 368 368
368 369 370 370 371 372 372 371 370 372 372 371 371 335 329 334 359 361 364 368 369 368
370 369 370 371 372 373 373 371 369 370 372 360 371 339 327 333 359 359 359 364 368 340
371 371 372 372 373 373 372 369 370 370 371 372 368 368 325 322 362 358 358 359 360 364

GFSNIL_sfc_thetae_030.txt.gz
Theta_e
366 359 355 364 356 357 356 356 365 363 366 366 366 366 369 364 363 364 361 362 356 351
361 364 356 360 364 361 362 361 367 364 364 364 366 366 366 362 363 365 362 359 360 354
361 363 364 359 363 360 364 363 372 365 365 365 365 368 366 364 365 362 363 358 357 354
365 362 362 363 361 366 362 371 363 370 366 365 364 365 366 363 361 363 360 360 359 353
365 366 364 360 362 365 368 364 370 367 366 365 364 365 363 363 359 361 360 359 359 354
364 364 364 365 362 365 365 369 365 369 367 364 364 363 365 363 362 359 362 361 358 356
364 364 364 365 366 363 366 364 366 366 366 367 365 365 364 364 363 362 361 363 361 359
364 366 366 365 366 367 365 366 365 366 366 366 367 365 363 363 363 363 361 361 363 361
363 364 367 366 366 367 366 366 367 366 365 365 365 350 344 357 362 363 362 360 361 363
363 363 365 367 367 365 366 367 366 366 367 364 365 342 339 343 361 361 362 362 362 361
365 363 365 365 366 367 367 367 366 366 367 366 366 340 333 338 359 361 361 362 362 361
367 365 365 365 366 367 367 367 367 367 367 367 366 335 330 333 355 357 359 361 363 363
363 365 364 366 367 369 369 367 368 367 368 357 367 340 327 332 358 355 355 358 361 340
368 365 366 368 369 369 369 368 367 367 368 368 365 364 325 322 360 359 356 355 356 358

GFSNIL_sfc_thetae_033.txt.gz
Theta_e
356 352 348 351 345 349 349 353 354 357 358 355 356 356 353 354 353 353 348 349 342 337
352 356 348 347 352 346 350 350 355 356 359 357 357 355 356 355 352 354 351 348 348 342
352 354 356 348 347 354 348 350 352 356 355 357 358 357 355 355 355 353 353 351 348 346
354 352 356 354 348 352 353 353 352 357 355 356 356 359 355 353 353 354 351 351 349 346
356 355 352 356 354 348 354 353 358 359 357 357 357 357 358 355 356 352 352 352 349 348
356 357 354 353 354 355 350 357 354 358 359 358 358 357 357 357 357 353 354 354 352 350
356 357 358 356 354 352 356 354 360 354 358 359 359 358 358 357 357 356 353 355 355 353
358 358 359 358 359 358 353 356 357 359 356 359 358 359 357 357 357 356 355 353 356 356
358 358 358 358 358 359 358 354 357 357 357 358 360 347 342 354 357 357 356 355 354 357
357 357 358 358 358 357 358 359 356 355 358 356 359 340 337 342 358 357 356 356 356 355
356 357 357 358 357 358 358 358 359 358 357 359 359 337 333 337 356 357 357 358 357 356
355 355 356 356 358 359 359 359 359 360 360 359 360 332 330 333 351 355 356 357 358 358
356 357 355 357 358 360 361 360 361 360 362 352 361 336 326 331 355 354 355 356 356 338
357 358 359 358 359 360 360 360 360 360 362 362 359 358 324 323 355 357 356 355 354 355

GFSNIL_sfc_thetae_039.txt.gz
Theta_e
342 342 342 342 341 341 343 346 348 351 351 349 349 349 347 345 344 345 342 342 335 334
344 344 343 342 343 342 343 346 346 350 352 351 351 349 348 345 345 348 345 341 342 335
346 347 346 345 342 341 343 347 347 347 350 351 351 350 348 346 345 346 346 345 341 341
347 348 348 346 344 346 342 345 347 348 349 350 350 350 349 348 348 345 345 347 344 341
348 349 350 348 345 344 346 345 346 349 349 350 351 350 349 348 351 348 346 346 346 346
346 346 347 351 351 344 342 345 345 347 348 349 351 351 351 350 349 350 351 349 348 348
348 347 346 347 350 351 346 344 347 348 349 350 350 352 352 352 350 349 350 352 351 351
350 350 349 347 347 350 351 347 347 347 350 351 351 352 351 352 352 350 349 350 351 352
348 350 350 349 348 346 349 351 349 345 347 350 353 342 340 348 351 352 351 350 350 351
349 348 349 350 350 348 346 347 349 350 348 347 348 336 336 340 353 351 351 350 351 351
350 349 349 350 350 351 350 348 347 347 348 349 351 335 331 336 351 353 353 353 352 351
351 350 351 350 350 352 352 352 352 351 348 347 349 329 328 332 348 351 352 354 354 354
352 352 351 353 353 353 354 353 354 354 355 345 350 330 325 329 349 349 351 353 354 336
351 352 354 353 354 354 353 354 353 353 354 355 351 350 323 322 349 351 351 351 352 354

GFSNIL_sfc_thetae_045.txt.gz
Theta_e
357 351 350 354 351 350 349 352 360 361 362 362 364 363 363 360 359 360 358 358 358 352
356 356 353 358 356 352 357 352 358 361 361 362 362 363 364 359 361 360 361 360 360 357
354 356 356 357 356 357 355 356 357 360 361 361 362 363 363 360 362 362 360 358 359 359
353 353 355 354 355 358 356 357 358 360 361 360 361 362 363 362 361 361 362 362 360 360
353 354 352 354 354 357 358 358 359 360 360 360 360 361 361 360 359 360 360 360 361 359
351 351 354 355 356 357 358 358 356 358 358 359 359 360 361 361 361 360 360 360 361 361
352 353 354 357 358 356 359 358 357 358 359 359 359 360 360 360 361 361 361 362 362 362
354 356 357 358 359 358 358 359 359 358 358 359 358 356 359 360 361 361 361 362 363 363
355 356 357 358 359 359 358 359 359 357 358 357 355 341 339 353 359 362 362 360 362 363
356 356 357 359 359 360 359 358 359 357 357 359 360 336 334 339 357 359 360 362 362 361
356 356 358 358 358 360 360 360 359 358 359 359 360 334 330 334 355 361 363 363 363 364
356 356 357 357 357 357 356 357 358 359 359 359 360 330 328 335 355 356 361 363 363 363
359 358 358 359 360 360 359 356 356 356 359 350 361 333 324 332 353 355 353 362 363 338
360 360 361 362 362 360 358 360 358 357 359 359 356 356 323 320 352 353 354 354 356 358

GFSNIL_sfc_thetae_048.txt.gz
Theta_e
362 353 353 358 354 352 350 351 359 364 364 366 366 366 366 365 361 363 360 361 360 349
363 362 356 364 359 354 361 353 357 359 363 363 365 366 367 359 363 363 363 362 363 358
358 362 361 361 362 362 358 361 358 359 359 361 364 365 367 362 364 364 362 358 361 363
356 357 359 358 359 361 361 361 362 360 359 361 363 365 365 365 362 364 364 364 362 363
359 359 356 358 359 362 361 362 362 362 361 360 361 364 365 363 360 362 362 363 363 362
355 355 358 359 360 362 362 362 361 361 362 361 360 363 364 364 363 362 362 363 363 363
356 357 356 362 363 360 364 362 362 363 362 362 360 360 362 363 363 362 362 364 364 364
361 362 363 364 364 362 365 363 363 363 362 362 360 356 360 360 360 362 362 364 365 366
364 365 364 366 367 366 365 364 364 362 362 361 358 341 338 351 357 361 362 362 364 366
365 364 366 366 367 366 366 365 364 363 363 365 365 337 334 339 356 357 360 364 362 360
365 364 366 367 367 368 365 366 364 363 367 367 365 335 331 335 359 360 362 364 364 366
365 364 364 365 366 365 364 364 364 364 367 368 368 331 329 336 358 358 363 363 365 367
366 366 365 366 367 368 365 363 362 362 366 354 366 334 325 336 357 358 355 366 369 340
366 367 368 369 369 368 365 364 366 364 367 368 362 361 323 322 358 355 354 353 354 357

GFSNIL_sfc_thetae_051.txt.gz
Theta_e
364 351 348 357 352 350 348 351 371 365 364 366 367 364 369 362 359 365 359 361 364 352
363 358 351 357 364 357 362 352 361 364 364 364 364 368 371 359 363 367 364 364 364 358
363 365 363 365 368 363 365 366 361 362 361 363 366 367 373 364 368 367 361 356 370 368
360 361 364 365 367 368 367 369 368 365 364 363 363 367 371 370 366 363 368 366 364 366
361 361 360 362 366 370 369 367 368 368 367 365 364 368 369 364 361 362 362 363 367 361
359 361 359 364 364 368 369 370 363 368 369 366 364 367 370 369 366 364 364 364 366 365
360 361 360 364 367 367 370 369 369 370 370 367 366 365 365 367 367 367 364 367 367 367
363 363 364 363 367 368 369 370 371 371 370 369 363 358 365 367 367 368 366 367 367 367
362 364 363 364 367 369 369 370 371 370 370 368 359 343 339 356 363 367 367 367 369 370
364 364 365 366 368 368 369 371 371 370 370 369 369 336 334 339 358 363 365 368 369 365
366 365 367 368 367 368 369 369 369 371 371 371 370 337 330 335 361 361 364 368 368 370
366 366 368 367 368 369 369 369 369 371 372 372 371 333 329 336 360 359 364 366 367 367
368 368 368 369 370 372 371 370 366 368 372 360 373 334 326 336 358 359 357 366 369 342
369 370 371 372 372 372 371 366 370 368 371 372 367 368 325 322 363 357 355 354 353 356

GFSNIL_sfc_thetae_054.txt.gz
Theta_e
360 352 354 361 356 361 358 357 364 366 365 368 369 368 369 364 363 365 364 364 364 360
359 357 351 358 362 361 362 359 363 365 367 367 367 366 368 363 363 366 366 364 366 363
352 357 358 351 358 358 366 365 364 365 365 366 368 367 368 364 364 366 363 362 363 364
354 354 354 357 350 362 360 371 368 369 367 364 364 368 368 364 364 363 364 366 366 364
357 354 353 350 361 360 367 365 373 367 370 365 365 365 365 363 358 360 362 363 363 364
355 356 355 353 354 362 361 365 363 368 364 365 362 363 365 364 362 362 363 362 363 362
355 355 354 358 355 360 363 362 363 363 365 365 363 362 364 365 363 362 361 365 363 365
359 357 357 356 359 356 360 362 364 363 365 365 363 360 361 362 364 363 362 363 364 365
358 358 358 356 358 360 359 362 363 364 364 364 362 346 341 355 359 364 362 361 362 366
358 359 357 360 357 359 359 361 362 363 365 364 364 339 336 341 358 359 362 364 362 362
358 358 359 358 359 358 360 360 361 363 365 365 365 339 330 336 354 358 361 362 362 362
357 358 358 357 358 359 360 361 361 363 365 364 365 334 331 333 351 354 355 357 359 363
357 360 358 359 359 360 362 361 362 362 365 356 365 336 329 333 355 353 354 358 360 339
361 360 362 363 363 362 363 363 363 362 364 366 363 362 325 323 357 356 355 355 356 359

GFSNIL_sfc_thetae_057.txt.gz
Theta_e
348 343 345 348 347 352 352 351 355 355 355 353 356 355 354 351 351 352 349 348 350 347
351 343 343 345 346 345 348 352 353 358 355 357 356 356 355 350 352 352 352 348 347 350
347 351 344 344 345 346 345 348 354 358 356 358 355 354 356 350 353 351 352 353 351 349
344 350 348 344 341 347 345 355 357 358 356 357 356 356 354 351 353 351 352 353 350 351
346 346 348 345 343 340 347 349 356 358 356 355 353 355 354 353 353 351 352 352 351 350
348 344 346 344 345 341 350 347 354 356 355 355 355 353 354 354 354 352 353 353 353 352
348 348 344 345 342 349 347 355 352 357 354 355 353 354 354 356 355 353 353 356 354 355
350 349 349 346 345 340 353 349 354 353 356 356 356 354 353 356 356 355 353 352 355 355
351 350 349 349 350 345 343 354 352 352 354 356 358 345 342 351 355 356 355 354 353 356
351 350 349 350 348 350 345 347 353 355 355 355 357 340 338 342 353 352 355 355 355 354
351 351 352 351 349 350 352 348 349 353 356 356 357 339 334 337 349 352 352 356 356 355
351 350 352 349 350 349 351 352 351 354 355 356 357 334 332 333 340 347 350 353 354 355
351 352 351 351 351 353 350 350 354 352 355 350 357 335 330 332 349 342 345 348 349 337
351 351 352 353 353 352 352 351 351 353 354 357 355 356 326 324 352 350 346 346 347 351

GFSNIL_sfc_thetae_060.txt.gz
Theta_e
340 340 342 343 347 349 350 351 354 352 352 352 351 350 349 348 347 349 346 345 346 344
347 341 340 345 347 347 349 349 353 352 352 351 352 351 350 346 346 348 348 346 343 345
344 348 339 341 342 346 346 348 350 353 352 351 351 351 350 347 348 348 347 349 348 344
342 345 344 340 341 343 343 345 348 354 352 352 352 350 351 347 347 348 347 348 347 347
341 343 346 345 341 340 342 348 352 354 352 352 353 351 349 349 350 349 347 348 349 348
342 341 342 346 343 338 339 342 352 353 353 353 353 352 352 351 349 348 348 349 349 348
346 343 341 344 345 344 338 339 345 353 353 353 352 352 353 351 349 349 349 350 350 351
347 348 344 341 344 342 344 342 345 349 352 353 352 352 350 351 350 349 349 350 351 352
345 347 347 344 341 341 340 346 344 350 352 351 354 342 341 349 351 350 349 349 349 350
349 347 346 346 343 341 340 338 346 344 350 352 352 337 336 341 351 352 352 351 351 351
350 348 348 346 346 345 345 339 338 348 347 349 353 336 333 337 350 349 350 353 354 352
351 350 348 346 346 347 348 346 341 345 352 350 350 332 330 333 347 349 348 349 352 353
345 350 349 349 348 348 348 348 349 346 346 345 353 332 328 331 350 346 346 348 349 335
339 347 351 350 351 349 348 348 349 348 348 350 350 350 325 324 351 351 347 345 345 348

GFSNIL_sfc_thetae_063.txt.gz
Theta_e
338 340 339 341 341 344 346 349 350 348 349 348 347 348 345 346 344 346 343 343 344 340
338 338 339 341 343 344 346 349 350 349 349 350 349 347 346 345 344 345 345 343 341 342
343 340 338 340 343 344 346 347 349 350 348 349 349 349 347 344 344 343 345 346 344 342
340 344 341 338 340 342 344 346 346 350 349 347 348 349 348 345 345 346 344 344 345 344
339 340 343 341 338 339 340 342 344 347 349 348 349 348 348 347 348 344 344 345 344 345
339 338 339 342 342 338 338 340 346 348 349 348 349 349 348 347 347 347 347 347 345 345
340 339 339 340 342 342 337 338 340 349 350 350 349 350 350 349 347 346 347 347 347 348
343 342 340 339 340 341 341 339 338 343 350 350 351 351 349 350 349 348 346 347 348 349
343 344 342 339 338 339 340 341 338 339 342 349 352 341 339 347 349 348 347 346 346 348
343 343 344 343 339 338 339 339 340 341 343 343 348 336 335 339 349 347 348 348 347 347
344 342 344 345 342 340 339 339 337 338 341 345 347 334 331 335 347 349 348 349 349 348
346 346 344 344 344 344 341 340 339 338 338 341 344 330 329 332 345 347 347 348 349 351
343 348 347 346 345 346 345 343 343 340 338 335 343 327 326 330 348 347 347 349 347 333
336 337 348 349 348 347 346 346 345 345 343 341 343 345 322 322 348 348 347 347 347 348

GFSNIL_sfc_thetae_066.txt.gz
Theta_e
342 342 343 343 343 344 347 350 353 353 352 351 352 351 349 350 352 351 349 350 351 346
340 341 341 344 345 345 348 350 353 352 352 352 352 352 352 350 349 351 352 349 349 349
339 340 341 343 344 346 348 351 353 353 352 352 354 351 351 350 350 350 350 351 350 348
341 340 340 341 344 346 349 349 351 353 352 352 352 353 352 351 350 349 349 350 351 351
342 344 341 340 341 344 346 349 351 351 352 352 352 351 352 351 352 349 349 350 349 350
340 341 343 343 341 342 343 344 346 349 350 352 352 352 352 352 352 352 351 351 350 351
340 340 341 343 344 341 342 343 343 347 349 352 352 353 353 352 352 352 352 353 352 353
341 341 341 341 343 344 342 342 343 344 349 352 352 351 353 353 352 351 351 353 353 353
344 343 341 341 341 342 344 343 341 342 345 348 351 341 339 349 352 353 352 351 352 354
344 344 344 343 341 340 341 343 342 341 342 345 348 334 335 338 353 352 352 352 353 351
342 343 344 345 342 340 340 340 341 342 342 342 344 331 331 335 350 352 351 352 352 352
344 343 343 344 344 343 341 340 341 341 342 342 344 327 327 332 347 348 350 352 353 353
342 346 344 343 345 346 346 343 342 342 341 336 343 326 324 329 346 344 346 350 352 334
338 339 348 348 347 347 347 347 344 343 344 341 339 341 321 321 346 345 344 346 348 352

GFSNIL_sfc_thetae_069.txt.gz
Theta_e
356 352 352 356 353 353 354 356 363 363 364 362 362 361 361 358 358 359 357 359 361 357
354 355 354 357 357 354 359 356 361 363 363 362 362 362 362 356 359 361 361 358 359 358
352 354 355 356 357 358 358 360 360 361 362 362 362 362 362 360 361 360 357 357 360 359
350 351 353 353 355 358 360 361 360 361 361 362 362 363 362 361 360 359 359 359 359 360
352 351 350 351 353 357 358 360 361 362 362 362 362 362 362 360 358 358 358 358 359 357
349 350 350 351 352 353 356 358 358 361 361 362 361 362 362 362 361 360 359 358 359 359
346 349 351 355 354 352 355 355 356 358 360 362 362 362 362 362 362 361 361 360 360 360
350 350 347 349 356 354 353 354 356 355 356 358 357 356 361 362 361 361 360 361 361 361
353 354 353 353 352 356 354 354 355 353 354 354 352 339 340 353 360 361 360 359 361 362
351 352 353 352 353 353 353 355 353 353 354 355 357 334 335 340 357 359 361 361 361 359
349 350 353 352 352 352 352 353 353 352 355 355 354 332 330 335 356 359 360 361 362 361
349 349 350 350 353 352 350 350 352 352 353 353 354 328 326 334 352 353 360 361 361 362
347 346 351 351 352 353 353 351 350 349 352 344 354 331 323 330 347 349 349 358 362 336
341 346 346 348 355 353 353 353 353 351 352 353 350 351 322 320 349 348 349 347 348 350

GFSNIL_sfc_thetae_075.txt.gz
Theta_e
364 356 354 358 356 354 355 352 367 362 361 361 362 362 363 359 355 364 356 357 363 357
365 362 358 367 360 356 362 354 363 361 361 361 362 363 366 356 361 365 361 359 361 358
362 363 362 360 362 362 360 360 355 362 362 361 361 362 365 363 364 362 356 352 365 365
360 361 362 359 360 362 360 362 361 368 363 362 361 362 366 367 362 360 362 364 359 363
360 361 359 360 361 364 365 361 362 364 363 363 362 364 364 360 357 359 358 359 364 357
357 359 359 360 361 365 365 364 358 362 364 361 361 365 366 365 361 360 359 359 360 360
357 358 358 362 365 361 366 364 363 364 366 364 360 361 362 364 364 363 361 362 362 362
357 360 358 361 365 364 365 365 365 364 364 364 360 355 364 364 363 364 363 364 363 365
355 358 361 362 362 365 365 367 367 363 363 363 354 342 339 354 363 366 367 366 368 369
347 354 355 360 361 362 362 365 367 365 363 364 365 338 334 340 357 362 367 367 369 362
332 342 349 356 357 360 360 360 363 363 367 367 364 336 331 335 361 361 363 365 368 368
326 333 339 340 352 362 360 358 358 361 365 367 367 332 329 334 354 354 360 364 364 366
323 328 338 339 337 349 360 358 357 358 362 353 365 339 326 332 354 354 354 359 362 340
326 325 329 338 339 341 348 357 358 356 361 365 361 363 325 322 356 355 353 352 353 354

GFSNIL_sfc_thetae_078.txt.gz
Theta_e
365 360 356 350 358 353 347 355 366 365 365 368 365 366 366 365 363 364 361 360 362 360
363 362 363 363 367 356 352 359 360 363 364 365 360 367 366 358 361 363 358 364 361 359
363 365 365 367 366 369 351 350 349 349 358 364 360 363 365 363 354 358 355 357 361 363
362 363 365 364 368 367 369 351 346 338 340 355 363 366 365 361 357 359 360 365 361 360
363 363 363 363 364 369 367 368 354 344 344 356 362 362 363 359 360 357 359 361 359 360
360 362 362 364 364 366 367 367 364 365 366 366 362 365 361 363 362 359 359 363 362 360
359 359 360 364 364 364 367 365 364 365 365 364 364 364 363 362 363 362 361 362 364 363
343 360 368 367 365 366 364 364 365 364 363 364 361 358 361 363 362 359 358 360 362 363
345 351 355 362 363 367 364 365 364 363 362 360 359 344 340 356 361 362 361 358 362 365
335 340 345 355 361 364 363 365 363 362 362 361 361 340 333 338 357 361 362 362 360 360
326 331 340 346 343 349 362 362 362 361 363 363 362 339 334 334 353 358 358 360 362 361
324 323 329 339 341 343 348 356 358 359 361 361 362 335 330 335 351 352 355 358 359 358
329 327 326 327 337 341 345 347 354 356 359 349 360 339 329 331 353 352 351 352 355 339
327 327 330 332 330 337 338 342 347 347 356 357 355 358 327 324 356 355 353 352 352 353

GFSNIL_sfc_thetae_081.txt.gz
Theta_e
349 346 345 344 345 347 344 349 351 354 353 352 351 351 351 348 350 349 345 341 344 347
349 349 345 341 344 349 345 352 350 351 353 353 353 352 352 347 347 348 348 347 347 345
353 352 352 351 350 348 348 348 346 343 345 350 352 356 351 349 348 347 347 344 343 347
353 354 352 352 352 349 347 343 343 342 339 344 350 352 350 349 349 347 346 349 349 348
354 354 353 352 352 353 349 347 343 342 338 341 348 351 351 349 349 349 347 347 349 345
349 353 351 353 354 355 350 345 340 338 340 347 348 351 352 352 352 350 349 348 348 349
339 341 346 353 356 356 356 353 352 352 352 352 353 351 353 352 350 351 351 351 352 351
341 337 339 343 350 354 356 356 355 353 354 354 354 356 353 352 350 350 349 351 352 353
334 340 343 344 346 349 351 354 356 352 354 352 356 344 341 350 353 352 349 347 349 352
328 329 335 341 340 338 347 350 352 354 354 351 353 339 335 338 352 354 352 350 350 351
325 324 327 335 336 335 340 344 350 350 352 353 355 338 336 336 339 343 351 355 355 353
326 325 324 325 327 335 337 339 343 350 350 350 350 336 329 332 341 343 344 350 351 353
322 321 321 325 326 327 334 335 337 342 344 344 350 337 327 330 344 340 346 345 347 336
319 319 318 319 321 324 324 328 333 335 339 344 348 350 330 323 343 349 345 348 348 347

GFSNIL_sfc_thetae_084.txt.gz
Theta_e
343 341 338 341 344 344 345 346 349 350 350 349 349 348 347 345 346 345 345 340 341 343
346 344 343 343 341 342 344 347 349 352 351 351 348 347 349 344 344 346 344 343 344 342
346 347 345 343 339 344 343 350 347 349 350 350 350 349 349 346 344 343 343 341 340 342
349 348 347 347 347 348 346 347 346 344 343 344 346 350 349 346 346 345 343 342 346 344
345 347 348 348 348 347 345 344 343 340 338 338 343 347 348 346 348 346 344 345 343 345
340 345 345 346 348 349 346 345 343 340 338 337 340 344 349 348 347 346 347 345 344 345
337 336 338 343 345 347 346 345 342 339 338 339 341 346 349 349 347 349 349 347 347 347
338 338 341 340 338 339 345 350 344 344 345 345 348 350 348 350 347 346 346 349 350 350
332 334 336 340 339 339 340 346 349 348 349 350 355 342 341 348 348 345 346 345 346 348
324 325 326 333 337 335 337 341 345 347 348 348 349 339 336 338 346 348 348 348 347 346
323 324 326 327 327 330 336 337 339 343 345 346 350 334 331 333 339 343 349 351 350 348
322 321 322 324 325 327 330 329 332 335 340 341 345 331 326 330 340 340 340 344 349 352
317 317 317 318 320 324 326 328 330 331 334 332 339 331 326 328 340 341 342 344 344 334
313 313 313 314 315 317 320 323 326 328 332 334 334 336 325 323 338 345 346 340 346 347

GFSNIL_sfc_thetae_087.txt.gz
Theta_e
341 337 336 340 342 342 343 345 347 348 347 346 347 344 344 345 345 344 344 340 341 341
341 340 337 338 342 343 344 345 346 348 349 348 347 345 346 344 342 343 343 341 342 341
343 343 342 342 340 340 342 343 346 348 349 348 347 345 345 344 343 342 341 340 339 338
344 344 343 343 342 340 341 344 348 346 346 347 346 347 346 345 344 342 341 340 342 343
344 345 344 344 345 345 346 344 343 344 342 342 342 345 346 346 347 344 342 342 341 341
336 339 342 344 346 347 345 343 342 342 339 338 337 342 345 346 345 344 344 343 342 342
336 336 337 337 338 341 345 345 342 341 340 337 337 339 344 346 345 345 346 347 344 341
337 337 339 339 338 338 339 343 347 343 340 339 339 342 341 345 347 344 344 346 347 347
333 332 333 338 337 336 337 339 339 344 345 344 348 338 337 344 346 347 344 343 344 345
326 325 325 327 328 333 334 334 335 338 343 345 346 335 332 338 346 347 346 345 345 346
324 324 325 326 325 326 328 328 329 330 333 338 343 330 327 331 338 341 342 346 347 346
317 317 317 317 319 322 323 325 327 330 331 332 333 327 324 328 338 340 341 341 343 348
312 314 314 313 315 317 319 323 326 327 329 328 331 326 322 324 337 339 340 343 343 331
307 308 309 311 311 312 313 315 317 321 325 326 327 329 317 316 331 337 340 342 343 345

GFSNIL_sfc_thetae_090.txt.gz
Theta_e
343 343 342 344 345 346 347 349 352 352 352 351 350 348 349 350 350 351 350 348 349 347
343 341 340 341 346 347 348 349 351 351 351 351 351 350 350 349 349 350 349 349 348 348
344 343 343 344 343 345 347 349 348 350 350 350 351 351 350 350 349 349 347 346 347 347
345 346 347 345 345 345 345 345 346 348 350 351 349 351 349 350 349 348 347 347 348 349
347 347 348 345 347 349 347 347 346 348 349 349 350 350 351 350 351 348 347 347 347 347
337 340 341 344 347 348 349 348 346 346 345 344 344 346 349 350 348 349 347 349 348 348
338 339 339 339 340 341 346 348 347 346 345 345 343 342 344 348 349 349 348 348 350 349
337 338 340 340 340 340 341 342 346 348 346 345 343 342 343 346 349 350 350 350 351 351
333 331 333 336 337 337 338 339 342 342 346 347 349 337 334 343 349 351 350 350 351 351
327 326 327 328 329 332 331 333 333 334 336 339 343 329 328 333 343 349 351 352 351 351
321 321 324 324 323 325 327 329 330 331 333 335 336 327 324 328 339 343 347 350 351 351
317 315 316 316 318 320 321 325 325 329 330 332 332 314 315 323 337 343 344 347 347 348
311 312 312 313 315 317 318 321 325 326 325 321 324 312 311 318 326 331 339 346 348 333
306 307 307 311 311 312 314 314 315 316 318 319 315 314 310 309 312 313 324 334 338 340

GFSNIL_sfc_thetae_093.txt.gz
Theta_e
357 352 354 356 356 354 358 363 363 362 361 360 360 359 360 356 358 362 359 356 360 357
355 355 354 356 358 357 359 356 360 361 361 361 361 360 358 355 358 360 359 358 359 356
357 357 356 355 353 356 358 358 359 359 360 360 361 361 360 357 358 359 357 355 357 357
356 356 356 355 356 356 356 356 357 358 357 359 360 359 360 360 359 357 358 357 357 357
353 355 356 356 356 357 356 357 357 357 357 357 357 361 360 357 355 357 356 357 356 355
343 354 356 356 357 357 358 359 358 357 356 357 356 357 358 359 358 357 357 357 357 356
343 346 349 350 352 353 357 359 359 359 358 356 355 354 353 354 356 357 358 359 359 359
341 345 346 348 348 349 350 352 357 358 358 357 354 352 352 352 352 354 356 357 358 359
341 335 335 344 345 345 345 346 349 351 352 352 348 331 333 343 353 355 356 357 359 360
332 333 331 332 335 337 338 339 339 340 344 345 342 324 325 331 354 356 360 360 361 360
324 325 329 330 328 329 332 334 335 336 338 333 321 316 321 327 348 352 355 357 358 360
318 318 319 320 323 325 328 330 332 333 338 325 317 312 314 333 344 346 348 351 353 354
312 313 314 316 320 323 326 328 328 326 324 318 314 310 310 318 325 326 335 344 339 325
312 309 312 315 317 317 318 320 321 320 321 318 317 310 308 308 314 315 320 323 324 324

GFSNIL_sfc_thetae_096.txt.gz
Theta_e
361 353 357 356 355 363 358 355 362 360 360 362 362 362 364 358 355 359 357 357 361 355
362 360 355 359 359 367 366 359 360 359 358 359 360 362 364 355 360 362 360 358 359 356
355 356 356 359 360 361 362 364 361 359 358 359 359 363 365 358 360 361 357 355 357 358
356 354 355 355 356 358 360 363 363 362 358 359 357 359 361 361 359 359 359 360 358 358
355 356 354 355 356 360 358 364 363 362 362 361 359 360 359 357 357 358 356 355 357 357
350 353 355 356 356 359 360 360 357 358 358 360 360 359 361 362 359 357 356 356 356 356
344 347 351 354 357 358 360 361 357 358 358 359 361 361 360 360 360 359 357 358 357 355
346 348 350 353 355 358 359 358 361 361 361 362 360 357 360 359 358 357 357 357 358 358
347 346 345 347 350 351 352 355 357 357 359 360 356 327 332 345 358 359 358 358 361 360
339 341 339 335 337 344 347 349 348 351 353 342 338 319 323 331 356 360 360 360 361 357
331 333 335 333 334 337 340 347 348 346 346 335 321 314 318 326 351 357 359 360 360 360
321 323 329 331 335 339 341 342 342 344 337 329 321 311 312 328 351 352 355 350 339 344
320 320 321 324 324 329 331 336 337 337 331 319 322 308 309 317 335 339 343 348 339 320
315 316 318 320 321 324 330 331 331 330 329 325 319 313 307 308 311 313 326 334 335 333

GFSNIL_sfc_thetae_099.txt.gz
Theta_e
359 353 352 356 360 353 351 353 365 362 361 361 363 362 363 357 355 364 357 359 367 356
360 359 357 358 360 357 363 359 360 360 359 360 361 362 363 355 358 358 361 361 361 357
358 358 357 358 358 360 355 361 362 358 358 359 359 361 363 361 362 361 357 355 363 360
357 358 359 356 356 358 360 362 359 361 359 359 359 360 364 364 361 360 361 362 360 358
355 357 357 355 356 358 359 360 360 361 361 361 359 362 362 358 357 358 357 356 357 356
355 355 357 359 357 358 358 360 358 360 360 359 361 362 362 362 360 358 357 356 356 356
347 348 350 352 353 354 361 359 359 359 361 359 359 359 360 360 360 359 357 358 357 357
346 348 349 349 353 355 359 358 359 359 360 360 358 351 349 360 359 360 359 359 358 359
351 353 351 353 351 353 355 356 358 358 359 358 341 326 328 341 361 359 359 357 360 363
348 348 348 349 349 345 348 355 353 354 350 342 332 317 320 330 348 357 362 363 362 357
338 339 341 343 343 338 343 348 351 350 345 336 321 313 316 322 344 354 359 358 359 360
332 335 336 336 342 342 345 346 347 347 342 334 322 310 312 325 350 355 354 349 344 352
325 326 329 333 335 339 341 342 342 336 336 321 326 308 309 316 329 342 339 352 333 315
320 321 323 325 325 327 334 338 338 336 333 324 317 311 308 308 321 316 319 320 321 326

GFSNIL_sfc_thetae_102.txt.gz
Theta_e
367 358 359 362 356 348 348 347 355 363 364 366 365 365 366 365 362 365 363 362 363 362
366 366 364 364 371 361 349 348 345 339 360 363 359 363 361 363 362 352 350 356 364 362
361 363 366 367 364 361 345 340 342 344 355 362 361 364 367 364 360 359 352 356 360 360
361 361 362 364 365 367 349 344 343 353 361 358 364 365 364 364 363 357 356 359 358 357
351 354 359 354 348 360 364 362 364 366 361 362 360 361 361 361 359 358 357 358 361 359
357 356 359 357 349 349 358 365 364 365 360 357 360 358 359 361 360 359 360 360 358 359
349 351 350 352 355 356 357 356 355 361 358 357 361 359 359 359 359 360 360 361 362 361
350 346 347 349 348 351 350 352 353 355 359 345 342 336 339 346 353 355 358 360 359 359
351 350 350 349 348 347 347 349 350 350 352 342 334 323 326 333 352 358 356 358 361 363
350 351 350 350 350 349 346 345 345 346 340 326 320 316 319 325 341 354 356 356 358 355
347 345 345 345 344 344 346 342 343 343 337 329 315 313 316 323 339 350 356 356 355 353
338 338 338 340 343 344 343 339 344 345 339 329 315 311 311 325 339 356 352 343 325 337
329 332 333 334 335 340 344 346 340 336 333 325 318 309 309 312 328 332 331 336 326 315
320 325 328 330 332 334 334 342 339 335 329 321 318 311 309 308 317 315 324 325 322 322

GFSNIL_sfc_thetae_105.txt.gz
Theta_e
350 348 347 349 345 344 343 346 348 349 350 351 352 352 351 348 350 349 346 345 349 345
351 348 348 349 348 348 348 349 347 344 340 344 351 353 351 349 346 345 343 337 346 349
349 350 349 348 343 343 342 343 345 340 340 343 352 350 350 349 349 346 338 337 348 346
350 350 348 348 348 345 341 338 337 342 346 351 352 351 349 349 348 347 347 347 347 346
348 343 346 344 345 347 345 344 343 349 352 351 351 350 350 351 350 347 346 347 345 346
341 343 347 346 343 345 350 349 351 351 350 350 350 349 350 351 350 349 349 348 348 347
342 343 346 346 347 346 347 346 348 350 352 349 343 342 343 346 348 348 351 351 349 349
342 341 342 341 341 342 343 345 349 350 342 340 334 330 333 336 343 350 347 350 351 349
344 342 342 343 341 342 342 342 346 342 337 330 324 319 322 326 333 345 350 348 347 346
343 342 344 345 343 340 338 341 343 331 321 313 312 315 318 324 327 338 344 345 346 344
342 340 339 338 338 337 338 339 334 330 324 314 309 313 315 324 332 338 341 334 339 328
336 333 334 332 336 337 337 337 336 331 322 313 307 311 312 322 328 338 327 317 320 315
328 328 325 326 328 329 332 336 329 327 322 316 307 310 310 315 315 319 328 322 316 315
321 324 323 323 325 325 328 332 329 322 317 315 308 306 308 309 306 308 314 317 315 313

GFSNIL_sfc_thetae_108.txt.gz
Theta_e
346 344 343 341 344 345 343 342 345 347 348 349 349 346 348 345 346 346 343 341 342 345
346 345 345 347 344 344 346 346 345 347 343 341 347 348 348 345 344 344 341 336 344 345
347 346 346 345 344 346 347 345 346 343 340 340 344 348 347 347 346 344 343 335 342 342
348 347 346 344 343 342 341 340 341 339 339 343 347 348 346 345 347 344 343 344 343 344
348 347 346 345 345 342 340 338 335 338 344 348 349 348 347 346 349 346 344 344 344 344
345 342 346 343 342 343 345 346 343 346 347 348 347 347 347 347 347 346 347 346 344 345
341 341 345 345 342 342 344 342 344 345 346 341 337 337 339 343 344 347 349 348 348 346
341 342 342 342 343 343 343 342 343 341 338 334 332 329 330 335 337 345 346 349 349 344
339 338 337 340 342 342 341 340 342 337 331 325 321 319 321 325 331 338 344 346 346 338
340 340 340 342 341 338 337 340 331 321 315 310 312 317 319 325 328 336 342 340 341 334
339 339 338 336 335 333 335 334 325 320 315 309 309 315 319 329 335 334 329 332 326 318
338 337 334 333 333 333 333 331 327 321 315 308 306 312 317 325 335 326 317 316 313 310
332 331 328 328 327 327 334 333 328 320 314 311 305 310 312 313 319 323 321 317 315 314
326 325 324 323 323 325 330 326 322 320 314 308 305 305 309 309 306 309 314 314 313 309

GFSNIL_sfc_thetae_111.txt.gz
Theta_e
343 342 341 340 339 341 342 342 343 345 348 346 345 340 346 345 344 346 342 339 341 341
343 342 342 342 342 342 343 343 344 346 345 346 347 347 346 344 342 342 340 337 338 343
342 343 344 345 343 342 343 345 340 343 342 340 342 345 347 345 344 342 340 334 338 340
343 344 344 344 344 343 342 341 341 342 339 337 342 345 346 345 345 343 341 342 343 341
344 344 344 343 343 342 339 338 336 337 336 341 346 346 346 344 348 345 343 342 341 342
344 344 343 341 342 343 341 340 339 340 342 345 345 345 345 346 347 347 346 345 344 344
344 344 344 345 342 341 342 340 343 344 344 343 338 339 339 342 344 344 346 347 347 346
345 346 344 344 342 343 342 342 342 341 338 334 333 330 329 333 336 339 342 347 348 344
343 343 341 340 340 341 341 341 343 337 332 327 328 322 321 326 330 337 343 344 341 339
338 337 338 339 340 340 339 339 331 324 318 313 313 317 320 324 327 336 341 343 342 331
338 339 339 339 337 335 336 329 320 314 312 310 312 317 323 331 334 333 334 332 330 323
339 336 335 333 332 333 331 323 318 314 310 307 307 313 318 329 326 323 320 319 319 314
336 334 332 331 331 331 330 326 320 315 309 309 304 310 311 322 321 314 314 317 315 314
329 329 329 328 329 331 329 322 318 314 309 304 304 306 309 309 310 314 315 313 311 307

GFSNIL_sfc_thetae_114.txt.gz
Theta_e
344 343 343 344 344 345 345 346 348 348 352 350 348 343 345 349 349 351 349 348 350 349
345 344 344 345 345 344 347 347 347 349 351 350 351 351 351 350 348 348 347 345 346 350
344 346 345 347 346 346 345 346 346 347 347 348 348 350 351 351 350 348 346 342 346 349
344 345 346 346 346 346 347 347 346 345 346 344 344 348 350 349 350 348 348 348 347 349
345 346 346 345 346 345 344 344 344 346 344 342 345 350 350 348 351 349 348 348 347 347
345 345 345 345 345 345 343 343 342 340 340 343 350 350 350 349 348 351 350 351 349 349
343 344 344 344 343 344 343 343 345 345 347 349 347 347 346 345 347 347 349 350 350 350
344 345 345 343 343 344 345 344 343 344 344 341 340 336 335 338 340 342 346 348 351 349
344 342 343 343 342 343 342 342 343 340 337 336 333 322 323 326 333 338 343 346 348 341
341 341 341 341 340 340 339 340 340 334 328 322 319 319 321 325 329 337 342 345 341 334
339 339 338 339 340 339 339 336 329 321 316 316 318 317 322 329 337 337 330 331 331 325
339 339 339 339 338 336 334 326 321 318 315 315 314 313 320 330 329 324 321 320 321 319
340 339 335 334 335 336 330 324 318 314 312 310 311 310 312 323 322 318 318 320 318 314
332 333 333 332 334 334 327 322 318 314 310 310 309 309 309 310 320 322 322 318 317 312

GFSNIL_sfc_thetae_120.txt.gz
Theta_e
359 359 354 354 356 352 353 354 358 359 360 361 363 362 363 357 358 360 359 362 362 355
361 360 355 358 364 356 366 363 363 362 360 359 360 361 362 356 358 360 361 359 361 357
357 360 360 360 363 359 360 363 362 362 362 362 362 363 365 359 361 360 357 354 358 359
356 357 359 358 361 363 365 363 362 363 362 361 362 362 364 362 360 360 359 359 358 359
358 358 356 358 359 363 363 364 363 362 361 360 361 361 362 360 358 358 357 356 358 356
356 357 356 358 360 362 361 362 360 360 360 359 359 359 360 361 359 359 358 357 357 356
356 356 356 359 361 360 362 361 360 360 361 360 358 358 360 359 359 358 357 360 358 357
358 359 361 360 361 361 359 358 359 358 358 359 359 356 359 359 358 358 357 359 359 358
360 360 360 358 359 358 356 356 356 356 356 355 353 324 324 332 351 355 355 355 356 358
357 355 358 358 357 354 350 354 352 354 353 347 347 321 321 324 338 349 352 354 355 354
347 349 354 347 346 346 347 347 347 349 345 345 339 317 321 328 336 347 352 349 352 354
344 346 343 341 342 343 343 344 339 332 326 325 322 314 319 330 344 341 335 330 336 335
346 345 340 341 340 341 341 334 328 322 322 319 324 314 314 326 344 342 340 338 329 313
336 336 340 341 338 334 327 323 321 319 318 319 319 317 312 312 337 337 338 337 335 332

GFSNIL_sfc_thetae_123.txt.gz
Theta_e
359 354 353 357 353 352 352 352 361 362 361 362 363 362 364 359 357 364 357 362 365 355
359 358 354 365 360 356 360 356 360 360 362 362 361 362 364 357 358 360 361 359 363 358
356 359 358 365 361 359 366 363 362 362 361 361 361 363 367 362 365 361 357 355 363 363
356 357 359 358 361 363 365 363 362 364 365 363 361 362 366 363 364 362 361 361 359 359
359 358 356 357 358 364 364 367 367 365 364 363 363 364 363 361 358 359 356 358 362 357
356 357 358 358 359 361 363 362 360 364 364 363 362 362 362 362 360 359 358 358 358 358
355 355 356 359 363 360 361 362 360 361 361 361 359 359 360 361 360 359 358 362 359 359
363 360 362 361 363 363 362 360 359 358 359 360 358 353 359 359 359 358 357 359 359 361
365 361 360 360 360 361 359 359 359 359 357 357 355 328 330 336 352 355 356 355 356 359
358 358 358 358 362 360 359 360 357 356 353 351 337 324 323 326 342 352 356 356 357 356
356 356 357 354 356 357 356 354 352 348 345 346 322 318 322 330 345 347 349 345 345 354
349 347 346 350 347 348 350 350 345 337 332 329 322 315 318 327 345 345 339 333 329 339
350 347 346 349 350 349 347 342 328 324 322 322 322 311 313 317 333 341 339 333 327 317
338 339 340 339 339 333 325 323 320 319 318 315 313 310 309 311 321 326 337 341 338 321

GFSNIL_sfc_thetae_126.txt.gz
Theta_e
362 360 357 361 358 358 360 349 353 361 369 367 369 368 368 367 363 362 363 364 366 362
362 360 358 359 365 363 371 361 360 364 366 366 366 366 367 363 363 363 365 364 364 362
356 361 361 367 367 366 369 368 368 367 365 364 366 368 367 363 362 361 361 358 362 361
356 358 360 358 363 363 365 368 364 365 366 365 365 364 364 364 362 361 360 362 361 359
359 359 355 359 361 362 360 366 366 368 367 365 364 364 363 360 359 361 360 361 360 358
359 358 359 355 361 362 359 362 361 364 360 357 360 358 362 361 360 360 358 358 356 355
357 358 358 363 362 363 363 360 361 363 360 358 359 361 360 359 361 358 358 360 358 356
358 360 360 360 363 364 359 362 365 362 362 361 358 347 346 362 360 357 355 358 358 358
360 361 361 362 362 361 361 364 361 361 359 359 339 329 331 335 347 354 356 355 356 360
360 358 359 359 359 358 358 360 357 357 357 345 332 325 327 333 336 345 354 356 357 356
356 355 357 358 358 359 359 356 356 351 350 334 323 321 324 328 335 342 350 346 345 346
345 347 351 351 353 355 354 347 350 349 343 332 321 315 316 324 338 342 339 339 333 337
343 342 346 348 350 350 343 341 331 321 321 318 310 309 311 317 328 330 337 332 323 320
337 336 333 331 329 326 323 320 318 315 313 311 310 310 309 311 314 314 324 335 322 317

GFSNIL_sfc_thetae_129.txt.gz
Theta_e
349 349 346 346 347 348 346 349 346 352 354 353 355 354 354 354 351 350 351 351 351 350
349 349 347 348 349 350 350 349 348 354 352 353 355 353 353 352 351 349 350 349 350 349
350 349 350 349 351 349 350 351 352 352 353 353 353 354 353 351 351 349 350 349 348 347
348 348 351 349 350 349 350 350 351 351 351 351 353 353 351 351 352 350 348 348 348 348
347 346 350 348 350 350 350 353 352 353 353 353 353 353 351 351 353 348 348 350 350 345
348 350 349 350 350 351 350 352 353 353 351 352 352 351 351 351 351 350 349 349 348 348
350 349 349 350 352 352 351 349 352 353 352 350 350 352 352 351 350 350 350 350 350 348
349 350 350 350 349 351 351 349 349 350 351 352 346 339 341 349 349 347 346 348 349 349
347 348 348 347 348 349 349 350 351 348 346 337 334 330 333 338 338 340 345 344 347 347
347 345 347 348 346 347 346 347 345 344 342 331 325 328 330 334 333 336 342 341 342 345
344 344 344 344 343 342 345 342 340 340 334 325 320 321 325 330 334 338 340 337 334 338
343 342 341 340 339 341 340 339 338 338 330 318 310 312 316 329 333 337 333 328 323 328
339 337 335 337 333 330 328 323 320 315 313 312 309 311 314 322 328 328 333 325 316 317
334 331 330 328 326 323 321 318 316 314 313 312 312 309 310 313 316 321 326 327 321 319